STARLINK-32822, 62868

Orbit data source: Space-Track

STARLINK-32822, 62868 is a payload satellite owned by SpaceX/Seattle (US) in LEO that was launched on Sat, 01 Feb 2025 UTC via an FALCON 9 launch vehicle from the Air Force Western Test Range (AFWTR). Payload-class satellites include a variety of spacecraft equipped with specific instruments for various scientific and technological missions. These include communications satellites like Starlink; space stations such as the ISS; scientific satellites like the Hubble; Earth observation satellites from companies like Planet Labs, Umbra, and HawkEye 360; GPS; miniature CubeSats for education and research; and military/defense satellites.

Loading next visibility...
Identifier
62868, 2025-022Q
Orbit
LEO
Last TLE update
1 day ago
Origin
Manufacturer
SpaceX/Seattle
Mission
Operational Commercial Communications
Bus & Motor
STARLINK V2M, Unknown motor
Mass
730 kg wet, ~700 kg dry
Launch date (UTC)
2025-02-01 (3 months ago)
Launch vehicle
FALCON 9
Launch site
Air Force Western Test Range (AFWTR)
Object type
Payload
Rocket body
Debris
Shape & HBR
Box + 2 Pan, 29 m
Radar Cross Section
33.884 m², Large (>1 m²)

Expand to show TLE details & history

TLE from 1 day ago
0 STARLINK-32822
1 62868U 25022Q   25128.27586307 -.00000798  00000-0 -99614-5 0  9997
2 62868  53.1613 112.2277 0001365  89.0583 271.0578 15.39613140 15088
Epoch: 2025-05-08T06:37Z
Definitive object data (Epoch: 2025-05-08T06:37:14.569Z)
Latitude
-0.00003°
Longitude
146.56828°
Altitude
448.139 km
Speed
7.645 km/s
True Right ascension
07h 28m 54s
True Declination
0° 00' 00"
Sunlit
Object was in daylight at TLE epoch
Visualization TLE readout
Latitude
48.46729°
Longitude
-161.12954°
Altitude
451.867 km
Speed
7.648 km/s
Apparent Right ascension
07h 17m 36s
Apparent Declination
9° 59' 59"
Sunlit
Object is in daylight
Visualization observer readout
Local Sidereal Time
15:59:49
Azimuth
306.02° NW
Elevation
-22.313°
Doppler factor
1
Orbital elements
Apogee altitude
448.441 km
Perigee altitude
446.578 km
Semi-major axis
6,825.647 km
Eccentricity
0.0001365
Inclination
53.1613°
RAAN
112.2277°
Arg. of periapsis
89.0583°
True anomaly
271.04216°
Mean anomaly
271.0578°
Eccentric anomaly
271.04998°
Mean motion
3.84882 °/min
BSTAR
-0.0000099614
Orbital period
93.54 mins
Loading maneuver chart data...
Loading SW <> Apogee altitude chart data...
Loading historical data...
Loading historical data...
Loading historical data...
Loading historical data...
Loading historical data...
Loading historical data...
Loading historical data...

STARLINK-32822 Visibility forecast

Observer location: undefined°, undefined°

Span
Click to sort rows by Start time (UTC) header in descending order
Start Az.
Max El. time (UTC)
Max El. Az.
Max El.
End time (UTC)
End Az.
6 mins2025-05-09 08:01:45.107Z317.338° NNW2025-05-09 08:04:45.107Z16.551° NNE39.725°2025-05-09 08:07:45.107Z114.959° SE
5 mins2025-05-10 00:51:45.107Z205.26° SW2025-05-10 00:53:45.107Z153.58° SSE36.829°2025-05-10 00:56:45.107Z62.616° ENE
4 mins2025-05-10 02:29:45.107Z292.382° WNW2025-05-10 02:31:45.107Z340.151° N21.194°2025-05-10 02:33:45.107Z21.026° NNE
5 mins2025-05-10 07:24:45.107Z336.253° NNW2025-05-10 07:26:45.107Z47.982° ENE33.086°2025-05-10 07:29:45.107Z106.45° ESE
|